Theta_e
323 325 327 327 327 326 325 325 325 322 321 321 321 321 319 318 317 317 317 316 316 316 317 318 319 321 320 319 321 324 330 331 330 330 328 328 329 329 329 329 330 330 330 330
324 324 320 322 325 327 327 326 327 322 320 323 322 324 321 318 318 318 318 317 317 317 316 316 316 317 318 319 319 321 325 328 330 330 329 328 328 329 330 329 329 329 330 329
324 321 318 321 321 324 324 325 323 326 322 321 322 323 320 318 315 315 315 315 316 316 316 316 316 317 318 318 319 319 321 324 328 329 329 328 328 328 329 329 328 329 329 329
322 319 320 320 320 320 324 319 321 321 323 324 320 323 318 315 314 313 313 311 312 313 312 313 314 315 317 317 316 317 318 321 325 328 329 329 328 327 328 328 329 329 329 329
320 320 321 322 321 320 322 319 320 320 321 323 322 325 317 314 315 315 314 311 311 308 307 308 310 312 311 312 315 315 315 321 326 328 329 329 328 328 328 328 329 329 329 329
316 315 317 318 317 319 317 320 321 321 324 327 322 323 321 317 314 313 313 310 307 305 304 304 306 307 307 308 310 314 316 318 324 326 328 328 329 329 329 329 329 329 329 329
317 318 316 317 318 318 320 322 325 326 325 323 315 321 320 314 312 311 310 310 307 305 303 303 303 304 304 305 306 306 307 307 308 310 315 321 326 327 328 328 328 328 328 328
315 313 317 315 318 319 320 320 321 324 320 319 314 321 318 313 312 312 310 307 306 304 302 301 301 302 302 302 302 303 303 304 305 306 307 307 308 309 311 313 318 323 327 328
313 313 314 315 316 317 321 323 318 319 309 314 316 314 313 314 313 311 310 307 305 303 301 299 300 300 300 300 300 299 298 299 300 301 303 303 304 305 306 306 307 309 310 315
312 309 314 314 316 317 319 318 324 322 323 318 318 314 317 312 311 311 307 306 303 300 299 298 298 298 298 298 297 296 295 296 296 297 298 298 298 299 300 301 302 303 304 306
310 310 315 317 319 318 321 321 319 318 320 319 317 315 310 308 306 308 308 304 300 298 297 296 296 295 295 296 295 293 292 293 293 294 295 295 295 295 295 296 296 296 298 300
312 309 310 314 315 314 316 319 318 319 321 319 320 320 312 310 306 307 303 301 299 297 296 295 294 291 291 292 293 291 290 290 290 291 292 293 292 292 293 293 292 292 293 295
312 314 309 316 316 315 318 318 318 315 313 318 319 318 313 311 307 305 303 301 299 298 295 294 293 291 289 289 292 289 287 287 288 289 289 290 289 289 290 289 288 289 290 291
312 310 311 310 308 311 315 315 317 317 319 318 319 317 315 312 311 308 307 303 301 298 295 293 292 289 287 287 289 287 285 285 286 287 287 288 286 287 287 285 285 285 286 288
312 312 310 310 312 312 311 312 315 318 316 318 315 317 315 313 312 312 310 305 301 299 294 292 290 288 286 286 288 283 283 283 283 284 286 283 284 284 281 282 282 283 284 285
312 314 310 307 311 312 314 311 313 314 315 315 314 314 311 310 309 310 308 301 297 295 291 289 287 285 285 285 282 281 281 281 281 282 281 280 280 279 279 279 279 281 282 283
314 313 312 313 309 312 315 312 312 312 311 312 314 313 308 309 311 307 301 296 292 290 288 286 284 283 283 281 280 280 279 279 280 280 277 277 276 276 276 277 277 278 279 280
314 314 312 310 313 315 308 304 309 312 312 310 308 303 309 306 294 293 292 290 288 286 285 283 282 280 279 278 277 277 277 277 278 276 275 275 274 274 275 275 275 276 277 278
311 313 308 311 311 306 306 302 309 312 312 305 309 299 293 289 289 287 285 284 283 282 281 281 278 278 277 275 275 275 276 275 274 274 273 273 272 273 273 273 274 274 274 275
312 311 313 300 308 311 307 300 300 307 313 296 298 296 292 294 302 291 283 281 280 279 279 277 276 275 274 274 273 274 274 273 273 272 272 272 271 271 271 272 272 272 273 274
312 313 314 304 300 299 299 298 296 309 305 294 293 294 293 294 288 283 280 279 279 277 276 275 274 273 272 272 272 273 273 272 271 271 270 270 270 270 271 271 271 271 272 272
313 314 313 296 307 310 293 295 304 296 287 288 286 285 286 282 280 279 278 278 276 275 274 273 272 272 271 271 271 271 271 270 269 269 269 270 270 270 271 271 271 271 272 272
311 306 303 306 306 287 283 286 285 285 285 283 283 282 282 280 278 277 276 275 274 273 272 272 271 271 270 269 269 269 268 268 268 269 270 270 271 270 271 271 271 272 273 273
301 297 302 300 290 285 282 279 280 281 281 279 279 278 278 277 276 274 274 273 272 272 271 270 269 269 269 267 267 266 266 267 268 269 269 269 269 269 270 270 271 272 272 273
298 298 294 290 283 282 281 280 278 277 276 275 275 275 275 275 273 272 273 272 271 270 269 268 268 268 267 266 266 266 266 266 267 268 268 268 268 268 269 269 270 271 272 273
290 295 300 302 288 289 284 279 277 277 275 275 274 273 273 273 272 272 271 269 269 268 267 267 266 266 265 266 265 265 265 265 265 265 266 266 266 267 267 268 268 269 271 271
Wind_Speed
6 6 12 13 10 7 3 2 3 1 2 4 6 10 11 12 7 10 10 11 13 15 23 31 36 42 35 30 31 36 35 38 34 34 34 34 39 35 39 40 39 37 37 37
5 19 8 4 7 7 5 7 6 3 3 2 7 21 13 6 10 13 15 17 18 18 15 22 26 32 34 31 30 31 35 35 36 36 37 30 25 32 39 37 39 40 39 38
12 4 12 10 7 8 6 11 4 4 0 4 5 23 13 18 9 8 9 12 17 18 17 17 18 25 29 30 31 30 31 32 32 34 31 26 24 22 22 30 33 37 37 38
10 12 7 4 11 7 13 7 5 4 2 8 5 17 13 5 12 7 12 10 13 16 12 16 16 18 25 25 23 21 23 26 27 29 30 33 28 24 30 27 29 31 32 34
7 10 13 12 9 10 6 7 9 6 4 4 14 6 5 6 11 19 13 11 11 9 11 12 8 9 6 8 7 9 12 16 21 23 28 27 27 24 25 23 26 30 31 31
4 1 8 7 5 12 6 5 2 3 6 9 14 10 24 10 12 10 3 5 6 8 8 8 12 17 21 23 28 24 19 13 3 8 17 22 25 27 26 24 24 27 30 32
4 5 3 2 6 2 4 5 3 4 5 9 4 11 23 4 7 7 9 6 3 7 7 8 10 16 22 27 29 30 31 30 26 21 13 5 8 13 15 19 23 25 25 26
13 4 10 5 7 6 10 13 6 5 4 5 4 9 11 6 3 5 6 9 8 8 7 9 12 17 21 26 30 32 32 32 30 27 26 22 19 15 10 9 11 15 19 22
9 7 2 1 5 10 5 12 15 7 1 1 5 8 11 3 10 4 3 7 8 9 10 11 16 21 23 26 29 30 32 34 33 31 28 26 23 22 20 17 16 15 14 16
5 1 0 3 4 4 4 3 4 5 5 4 4 5 7 11 12 3 8 11 11 10 12 12 18 21 22 24 25 32 32 31 31 31 30 28 27 25 24 23 23 23 21 20
5 4 1 5 9 11 6 8 3 1 3 5 11 6 5 10 12 5 11 12 10 11 11 11 16 21 23 24 28 28 32 33 34 32 29 29 30 29 27 27 28 27 26 25
6 4 4 10 3 2 7 12 12 8 5 4 1 2 1 2 9 15 13 12 9 10 9 9 15 19 23 24 26 28 29 30 30 27 28 27 29 31 31 31 32 32 32 30
13 6 3 2 2 2 6 10 11 3 0 10 3 5 4 5 13 12 15 9 8 8 8 9 13 17 20 22 22 26 28 28 30 29 29 27 30 30 29 30 34 34 34 32
17 4 14 14 5 6 8 11 11 9 4 7 9 5 5 6 11 10 9 9 10 9 8 8 10 16 17 19 20 26 27 27 27 25 24 24 30 28 29 34 35 36 35 33
12 10 5 1 2 4 6 10 17 16 25 11 11 13 14 15 12 10 9 9 10 9 10 10 9 11 15 15 13 18 19 22 24 22 22 28 27 27 35 35 37 37 35 35
6 3 7 5 6 5 4 6 18 23 19 20 10 13 5 13 9 7 10 11 11 9 8 9 10 15 14 15 18 19 23 26 26 24 24 27 28 33 31 34 37 39 40 39
10 5 4 10 4 4 6 25 13 14 7 18 15 14 8 8 10 9 11 12 11 8 7 7 7 9 13 14 17 20 21 21 23 21 27 27 30 32 32 33 34 35 36 36
12 11 5 3 5 9 9 2 14 21 17 17 4 2 5 12 12 10 8 12 10 8 6 5 7 11 13 15 17 18 19 20 17 20 22 25 27 29 31 32 32 34 34 34
17 10 3 5 10 6 5 5 7 9 13 10 12 7 11 15 10 5 8 7 8 7 7 7 7 8 10 14 15 16 15 15 18 20 23 25 23 25 28 28 29 30 32 33
15 17 11 2 6 11 7 5 4 6 11 10 14 17 18 13 8 5 8 7 8 9 7 5 6 8 10 13 14 14 14 16 19 20 20 21 22 22 22 23 27 28 28 30
11 11 15 6 5 8 5 6 3 9 5 8 7 14 16 7 1 13 10 8 9 7 6 6 7 8 9 11 11 10 10 12 15 16 17 18 19 19 19 22 25 28 29 29
13 11 8 4 6 14 5 4 11 2 3 6 5 4 9 13 11 11 9 8 7 6 5 5 6 7 8 9 9 9 9 13 14 15 16 21 24 23 27 28 27 25 25 27
8 7 7 10 8 1 2 3 2 2 5 4 7 7 12 13 7 8 7 6 6 5 4 5 4 4 5 8 9 11 14 16 20 25 28 30 30 29 28 25 25 25 26 28
4 3 4 4 4 3 3 2 2 4 8 9 10 8 7 9 9 8 7 6 6 5 3 2 3 4 7 10 10 12 17 23 27 28 28 28 27 30 26 24 22 23 26 29
3 8 6 1 1 3 5 4 8 12 11 12 9 7 9 11 8 6 7 7 6 5 4 3 3 4 7 13 18 21 23 25 27 27 27 28 26 25 24 20 21 20 18 25
3 6 6 6 9 3 3 14 13 13 11 10 12 9 8 10 9 10 7 7 6 5 4 5 7 11 17 19 20 22 23 24 24 25 24 22 22 22 21 21 20 16 18 23
Wind_Direction
183 210 216 200 216 238 133 141 229 303 309 300 250 268 262 269 287 283 288 284 276 267 267 269 268 271 269 266 259 255 249 252 242 237 231 231 236 238 246 250 253 254 255 251
170 231 210 202 183 211 218 246 252 219 206 250 294 281 270 247 258 264 273 278 276 276 277 269 266 269 269 263 261 258 251 249 244 237 237 228 231 238 246 251 253 254 254 254
209 187 168 186 190 196 211 228 187 242 224 258 317 282 277 270 262 264 265 255 265 267 278 281 274 263 271 267 258 259 257 254 248 245 237 237 236 244 242 245 249 250 252 254
231 239 181 189 217 164 234 163 180 230 158 263 159 281 274 264 269 248 259 266 274 283 279 273 273 264 269 278 277 264 265 265 259 251 233 234 226 228 238 243 255 257 260 257
203 173 197 204 205 175 233 157 183 182 211 295 245 272 331 34 279 277 265 250 279 295 294 287 286 299 359 12 341 284 263 264 262 251 241 230 233 241 253 255 257 263 265 264
224 295 184 206 139 177 144 108 141 161 227 239 240 209 275 253 247 259 256 265 326 338 345 21 52 71 67 66 66 69 75 61 360 271 251 234 240 247 249 253 256 260 268 270
158 199 218 173 109 69 152 139 226 205 202 246 152 187 244 260 265 261 250 295 44 37 17 23 30 41 51 56 63 67 71 66 66 69 57 12 288 286 286 277 271 270 267 267
210 222 174 182 197 168 192 208 223 227 212 233 142 224 251 252 336 252 230 159 102 69 37 37 28 41 46 49 52 54 53 54 57 61 60 54 47 43 18 326 303 302 292 284
188 228 68 151 152 162 179 214 222 278 94 283 222 280 294 305 269 261 56 142 98 64 41 36 39 41 40 44 45 45 46 47 47 47 49 49 43 37 32 24 23 7 342 314
204 96 226 171 96 273 186 197 178 203 227 253 237 269 251 338 316 325 108 79 63 56 47 36 34 33 37 41 44 45 44 41 39 41 41 37 36 34 29 23 24 15 3 351
146 104 126 141 204 184 188 221 191 343 249 267 265 245 329 299 297 101 95 84 80 68 53 41 35 31 29 33 36 35 33 32 31 30 29 28 25 23 22 19 16 8 4 1
170 136 161 205 152 225 207 218 209 231 210 216 224 250 332 326 84 97 84 89 87 77 70 54 48 37 29 24 26 26 23 20 18 19 20 18 15 12 11 10 4 1 357 357
176 195 128 205 276 216 215 207 195 175 172 248 273 256 164 84 104 113 119 123 114 98 74 63 49 38 29 21 19 19 15 15 11 9 13 13 8 6 5 358 353 354 351 347
166 174 206 213 189 145 199 205 200 189 233 242 231 210 173 157 133 142 138 136 114 92 76 54 40 31 25 22 17 10 1 4 7 6 6 10 2 360 356 348 350 350 348 343
178 216 202 219 159 175 188 189 199 208 228 222 237 217 199 179 164 162 159 123 94 84 64 43 35 24 19 15 22 6 355 356 358 4 11 3 357 352 346 346 348 347 345 343
205 224 154 239 215 188 234 221 206 213 223 232 246 256 166 167 169 168 136 121 110 96 76 55 27 6 5 10 1 2 359 355 358 360 6 360 352 346 345 343 342 344 344 343
201 177 145 236 167 115 263 237 201 217 207 216 229 237 154 158 164 151 138 130 121 105 87 62 41 9 348 1 2 357 350 349 360 4 354 355 348 343 342 340 339 339 338 336
192 202 175 178 140 217 251 126 210 211 214 200 214 155 180 145 109 101 117 128 120 115 86 50 31 358 355 352 4 353 353 356 1 352 348 346 347 341 339 338 338 337 334 330
198 177 176 189 210 307 267 212 166 176 236 210 199 137 133 126 103 93 102 95 102 93 73 53 17 357 344 359 355 353 355 356 353 355 349 342 342 335 338 335 332 330 327 327
203 203 202 149 187 224 260 177 157 103 261 172 169 171 156 158 174 169 135 112 95 85 73 37 14 356 357 356 353 353 354 355 355 347 338 341 343 341 334 332 331 329 330 325
195 201 208 176 223 276 201 160 168 160 243 162 150 158 166 170 29 126 116 103 97 86 59 31 11 3 359 354 353 351 353 350 339 339 341 344 347 342 340 337 339 338 336 333
185 189 199 131 213 256 140 97 179 154 41 120 107 103 111 119 117 115 118 119 104 83 58 29 13 5 355 352 353 355 354 340 339 344 351 0 0 0 357 354 346 340 335 332
197 190 174 196 212 43 43 17 0 65 128 135 117 112 129 127 125 126 125 111 104 88 63 32 7 344 350 359 3 358 348 344 350 6 10 8 6 3 2 351 345 345 346 346
235 171 148 122 176 171 170 81 23 79 107 103 111 115 116 124 128 120 127 120 115 99 83 32 11 2 1 4 9 4 353 1 7 6 3 360 354 354 351 353 348 350 353 350
177 139 142 54 78 49 236 200 140 113 107 103 90 102 118 122 118 126 124 127 127 120 88 71 43 16 1 10 15 11 4 6 3 2 360 359 348 338 337 342 344 346 356 355
187 168 180 221 180 133 168 157 144 138 140 136 132 117 93 123 128 134 129 122 116 100 68 58 37 23 13 11 9 5 6 5 359 353 351 337 331 331 330 328 328 342 359 2